{"data":{"norad_id":58533,"epoch":"2026-09-19T11:27:56.564064Z","epoch_age_seconds":235065,"freshness":"STALE","line1":"1 58533U 23192C   26262.47773801  .00002344  00000+0  80487-4 0  9999","line2":"2 58533  53.1605 238.4945 0001494 106.2937 253.8230 15.34398263155713","mean_motion":15.34398263,"eccentricity":0.0001494,"inclination_deg":53.1605,"raan_deg":238.4945,"arg_perigee_deg":106.2937,"mean_anomaly_deg":253.823,"bstar":8.0487e-5,"rev_number":15571,"period_min":93.847864320738,"perigee_km":461.68638063883,"apogee_km":463.73042524523,"semimajor_km":6840.845402942,"source":"CELESTRAK","updated_at":"2026-09-21T09:00:33.911994Z"}}